User: anonymous   Login
Location: Caltech
(34.1382°N, 118.1253°W)
Time: 01:47:44
(UTC-07:00)
Language:

SEDSat Delta rocket - Orbit

View from above orbital plane
View from above orbital plane
View from above satellite
View from above satellite

Ground track
Ground track

The orbit data is extracted from the following two-line orbital elements,

1 25510U 98061C   15242.70064508  .00000369  00000-0  55414-4 0  9992
2 25510 031.4350 304.4412 0329843 020.9365 124.8469 14.36720790882813
Epoch (UTC): 30 August 2015 16:48:55
Eccentricity: 0.0329843
inclination: 31.4350°
perigee height: 533 km
apogee height: 1005 km
right ascension of ascending node: 304.4412°
argument of perigee: 20.9365°
revolutions per day: 14.36720790
mean anomaly at epoch: 124.8469°
orbit number at epoch: 88281

The dashed part of the orbit path shows where the satellite is in the earth's shadow,  

DLR